South St. Paul, MN

11:00 AM CST on December 15, 2017 (GMT -0600)
South Saint Paul Municipal-Fleming

Weather History for KSGS - December, 2013

Change the Weather History Date:

Saturday, December 21, 2013

  Actual Average (KSTP) Record (KSTP)
Temperature  
Mean Temperature 23 °F -  
Max Temperature 26 °F 23 °F 39 °F (2003)
Min Temperature 19 °F 9 °F -9 °F (2008)
Degree Days  
Heating Degree Days 42    
Moisture  
Dew Point 16 °F    
Average Humidity 74    
Maximum Humidity 79    
Minimum Humidity 69    
Precipitation  
Precipitation 0.00 in - - ()
Sea Level Pressure  
Sea Level Pressure 29.91 in    
Wind  
Wind Speed 2 mph (North)    
Max Wind Speed 10 mph    
Max Gust Speed 16 mph    
Visibility 10 miles    
Events      
Averages and records for this station are not official NWS values.
T = Trace of Precipitation, MM = Missing Value Source: NWS Daily Summary

Daily Weather History Graph

Daily Weather History Graph

Search for Another Location

Airport or City:

Trip Planner

Search our weather history database for the weather conditions in past years. The results will help you decide how hot, cold, wet, or windy it might be!

Date:

Astronomy

Dec. 21, 2013 Rise Set
Actual Time 7:46 AM CST 4:33 PM CST
Civil Twilight 7:13 AM CST 5:07 PM CST
Nautical Twilight 6:35 AM CST 5:44 PM CST
Astronomical Twilight 6:00 AM CST 6:20 PM CST
Moon 9:00 PM CST (12/21) 10:04 AM CST (12/21)
Length of Visible Light 9h 54m
Length of Day
8h 47m
Waning Gibbous, 84% of the Moon is Illuminated
Dec 21
Waning Gibbous
Dec 25
Last Quarter
Jan 1
New
Jan 7
First Quarter
Jan 15
Full

Hourly Weather History & Observations

Time (CST) Temp. Windchill Dew Point Humidity Pressure Visibility Wind Dir Wind Speed Gust Speed Precip Events Conditions
12:12 AM 22.1 °F - 15.6 °F 76% 29.85 in 10.0 mi Calm Calm - N/A   Overcast
12:32 AM 21.9 °F - 16.0 °F 78% 29.85 in 10.0 mi Calm Calm - N/A   Overcast
12:52 AM 21.9 °F - 16.2 °F 78% 29.86 in 10.0 mi Calm Calm - N/A   Overcast
1:12 AM 21.9 °F - 16.0 °F 78% 29.85 in 10.0 mi Calm Calm - N/A   Overcast
1:32 AM 21.9 °F - 15.8 °F 77% 29.85 in 10.0 mi Calm Calm - N/A   Overcast
1:52 AM 22.1 °F 15.9 °F 16.3 °F 79% 29.86 in 10.0 mi WNW 4.6 mph - N/A   Overcast
2:12 AM 22.1 °F - 16.5 °F 79% 29.86 in 10.0 mi Calm Calm - N/A   Overcast
2:32 AM 22.1 °F 17.4 °F 16.5 °F 79% 29.88 in 10.0 mi West 3.5 mph - N/A   Overcast
2:52 AM 22.1 °F 17.4 °F 15.8 °F 77% 29.88 in 10.0 mi WNW 3.5 mph - N/A   Overcast
3:12 AM 21.9 °F - 15.8 °F 77% 29.88 in 10.0 mi Calm Calm - N/A   Overcast
3:32 AM 21.7 °F 17.0 °F 15.4 °F 77% 29.88 in 10.0 mi WNW 3.5 mph - N/A   Overcast
3:52 AM 21.7 °F - 15.3 °F 76% 29.87 in 10.0 mi Calm Calm - N/A   Overcast
4:12 AM 21.7 °F - 15.6 °F 77% 29.87 in 10.0 mi Calm Calm - N/A   Overcast
4:32 AM 21.6 °F - 15.3 °F 77% 29.87 in 10.0 mi Calm Calm - N/A   Overcast
4:52 AM 21.4 °F - 15.1 °F 77% 29.86 in 10.0 mi Calm Calm - N/A   Overcast
5:12 AM 21.2 °F - 15.1 °F 77% 29.86 in 10.0 mi Calm Calm - N/A   Overcast
5:32 AM 21.7 °F - 15.6 °F 77% 29.85 in 10.0 mi Calm Calm - N/A   Overcast
5:52 AM 21.7 °F - 15.6 °F 77% 29.86 in 10.0 mi Calm Calm - N/A   Overcast
6:12 AM 21.7 °F 15.5 °F 15.6 °F 77% 29.84 in 10.0 mi North 4.6 mph - N/A   Overcast
6:32 AM 21.6 °F 16.8 °F 15.3 °F 77% 29.87 in 10.0 mi North 3.5 mph - N/A   Overcast
6:52 AM 21.2 °F 14.9 °F 14.5 °F 75% 29.90 in 10.0 mi North 4.6 mph - N/A   Overcast
7:12 AM 21.2 °F - 14.4 °F 75% 29.90 in 10.0 mi Calm Calm - N/A   Overcast
7:32 AM 21.2 °F - 14.7 °F 76% 29.90 in 10.0 mi Calm Calm - N/A   Overcast
7:52 AM 21.0 °F - 14.0 °F 74% 29.89 in 10.0 mi Calm Calm - N/A   Overcast
8:12 AM 21.0 °F - 13.6 °F 73% 29.90 in 10.0 mi Calm Calm - N/A   Overcast
8:32 AM 21.2 °F 16.4 °F 13.6 °F 73% 29.92 in 10.0 mi North 3.5 mph - N/A   Overcast
8:52 AM 21.2 °F - 13.6 °F 73% 29.93 in 10.0 mi Calm Calm - N/A   Overcast
9:12 AM 21.4 °F - 13.6 °F 72% 29.94 in 10.0 mi Calm Calm - N/A   Overcast
9:32 AM 21.7 °F - 13.8 °F 72% 29.94 in 10.0 mi Calm Calm - N/A   Overcast
9:52 AM 21.7 °F - 14.0 °F 72% 29.95 in 10.0 mi Calm Calm - N/A   Overcast
10:12 AM 22.1 °F - 14.2 °F 72% 29.92 in 10.0 mi Calm Calm - N/A   Overcast
10:32 AM 22.8 °F - 14.7 °F 71% 29.92 in 10.0 mi Calm Calm - N/A   Overcast
10:52 AM 23.4 °F - 14.7 °F 70% 29.96 in 10.0 mi Calm Calm - N/A   Overcast
11:12 AM 23.7 °F 17.8 °F 14.9 °F 69% 29.93 in 10.0 mi North 4.6 mph - N/A   Overcast
11:32 AM 23.9 °F 18.0 °F 15.3 °F 70% 29.91 in 10.0 mi North 4.6 mph - N/A   Overcast
11:52 AM 24.4 °F 17.5 °F 15.6 °F 69% 29.90 in 10.0 mi North 5.8 mph - N/A   Overcast
12:12 PM 24.6 °F - 15.8 °F 69% 29.92 in 10.0 mi Calm Calm - N/A   Overcast
12:32 PM 25.2 °F 20.9 °F 16.5 °F 70% 29.92 in 10.0 mi NNE 3.5 mph - N/A   Overcast
12:52 PM 25.7 °F 21.5 °F 16.7 °F 69% 29.94 in 10.0 mi NE 3.5 mph - N/A   Overcast
1:12 PM 25.7 °F 21.5 °F 16.9 °F 69% 29.92 in 10.0 mi NE 3.5 mph - N/A   Overcast
1:32 PM 25.7 °F 21.5 °F 17.2 °F 70% 29.93 in 10.0 mi NNE 3.5 mph - N/A   Overcast
1:52 PM 25.7 °F 21.5 °F 17.4 °F 71% 29.93 in 10.0 mi NE 3.5 mph - N/A   Overcast
2:12 PM 26.1 °F - 18.0 °F 71% 29.93 in 10.0 mi Calm Calm - N/A   Overcast
2:32 PM 25.7 °F 21.5 °F 18.0 °F 73% 29.93 in 10.0 mi North 3.5 mph - N/A   Overcast
2:52 PM 26.1 °F 21.9 °F 17.8 °F 71% 29.92 in 5.0 mi NNE 3.5 mph - N/A   Haze
3:12 PM 26.2 °F 22.1 °F 18.1 °F 71% 29.92 in 10.0 mi NNE 3.5 mph - N/A   Overcast
3:32 PM 26.4 °F 20.9 °F 18.3 °F 71% 29.94 in 10.0 mi NNE 4.6 mph - N/A   Overcast
3:52 PM 26.4 °F 20.9 °F 18.1 °F 71% 29.94 in 10.0 mi NNE 4.6 mph - N/A   Overcast
4:12 PM 26.1 °F 20.5 °F 18.0 °F 71% 29.95 in 10.0 mi North 4.6 mph - N/A   Overcast
4:32 PM 25.7 °F 20.1 °F 18.0 °F 73% 29.96 in 10.0 mi North 4.6 mph - N/A   Overcast
4:52 PM 25.7 °F 19.0 °F 18.0 °F 73% 29.96 in 10.0 mi North 5.8 mph - N/A   Overcast
5:12 PM 25.3 °F 21.1 °F 17.8 °F 73% 29.95 in 10.0 mi North 3.5 mph - N/A   Overcast
5:32 PM 25.2 °F 17.3 °F 17.6 °F 73% 29.95 in 10.0 mi North 6.9 mph - N/A   Overcast
5:52 PM 24.8 °F 17.9 °F 17.4 °F 74% 29.95 in 10.0 mi North 5.8 mph - N/A   Overcast
6:12 PM 24.4 °F 17.5 °F 17.4 °F 75% 29.95 in 10.0 mi North 5.8 mph - N/A   Overcast
6:32 PM 24.4 °F 17.5 °F 17.2 °F 74% 29.96 in 10.0 mi North 5.8 mph - N/A   Overcast
6:52 PM 24.3 °F 18.4 °F 17.4 °F 75% 29.97 in 10.0 mi North 4.6 mph - N/A   Overcast
7:12 PM 24.3 °F 17.3 °F 17.4 °F 75% 29.97 in 10.0 mi North 5.8 mph - N/A   Overcast
7:32 PM 24.3 °F 16.3 °F 17.4 °F 75% 29.98 in 10.0 mi North 6.9 mph - N/A   Overcast
7:52 PM 24.1 °F 18.2 °F 17.4 °F 76% 29.97 in 10.0 mi North 4.6 mph - N/A   Overcast
8:12 PM 23.9 °F 15.0 °F 17.4 °F 76% 29.96 in 10.0 mi North 8.1 mph - N/A   Overcast
8:32 PM 23.9 °F 15.0 °F 17.6 °F 77% 29.95 in 10.0 mi North 8.1 mph - N/A   Overcast
8:52 PM 23.9 °F 15.0 °F 17.4 °F 76% 29.93 in 10.0 mi North 8.1 mph - N/A   Overcast
9:12 PM 23.9 °F 14.2 °F 17.2 °F 76% 29.92 in 10.0 mi North 9.2 mph 16.1 mph N/A   Overcast
9:32 PM 23.4 °F 12.8 °F 16.7 °F 76% 29.92 in 10.0 mi North 10.4 mph - N/A   Overcast
9:52 PM 23.0 °F 13.1 °F 16.7 °F 77% 29.93 in 10.0 mi North 9.2 mph - N/A   Overcast
10:12 PM 22.6 °F 11.9 °F 16.3 °F 77% 29.93 in 10.0 mi North 10.4 mph - N/A   Overcast
10:32 PM 22.1 °F 12.0 °F 15.8 °F 77% 29.93 in 10.0 mi North 9.2 mph - N/A   Overcast
10:52 PM 21.7 °F 12.3 °F 15.4 °F 77% 29.94 in 10.0 mi North 8.1 mph - N/A   Overcast
11:12 PM 21.2 °F 12.6 °F 15.1 °F 77% 29.94 in 10.0 mi North 6.9 mph - N/A   Overcast
11:32 PM 20.5 °F 12.8 °F 14.7 °F 78% 29.94 in 10.0 mi North 5.8 mph - N/A   Overcast
11:52 PM 19.9 °F 11.1 °F 14.2 °F 78% 29.94 in 10.0 mi North 6.9 mph - N/A   Overcast